QPF
0.12 0.12 0.09 0.07 0.06 0.06 0.07 0.09 0.09 0.07 0.06 0.06 0.03 0.03 0.02 0.02 0.02 0.01 0.01 0.02 0.01 0.01 0.02 0.02 0.02 0.02 0.02 0.02 0.02 0.02 0.02 0.02 0.02 0.02 0.02 0.02 0.03 0.04
0.10 0.11 0.11 0.10 0.11 0.10 0.08 0.06 0.06 0.07 0.07 0.06 0.04 0.02 0.02 0.01 0.01 0.01 0.01 0.02 0.01 0.01 0.02 0.04 0.03 0.03 0.02 0.02 0.02 0.03 0.03 0.03 0.03 0.02 0.02 0.02 0.03 0.03
0.07 0.07 0.07 0.08 0.10 0.08 0.08 0.07 0.06 0.07 0.06 0.06 0.04 0.03 0.03 0.03 0.02 0.02 0.02 0.01 0.01 0.02 0.03 0.05 0.04 0.03 0.03 0.03 0.03 0.03 0.03 0.02 0.02 0.01 0.00 0.00 0.01 0.02
0.06 0.07 0.08 0.08 0.09 0.09 0.09 0.08 0.08 0.07 0.08 0.07 0.05 0.04 0.06 0.06 0.04 0.04 0.02 0.01 0.02 0.03 0.05 0.07 0.04 0.04 0.04 0.03 0.03 0.02 0.02 0.02 0.02 0.01 0.01 0.01 0.01 0.02
0.06 0.07 0.07 0.06 0.06 0.07 0.09 0.10 0.09 0.07 0.08 0.07 0.06 0.05 0.06 0.06 0.06 0.05 0.03 0.03 0.02 0.03 0.04 0.06 0.04 0.03 0.03 0.03 0.03 0.02 0.02 0.02 0.02 0.03 0.02 0.02 0.02 0.02
0.07 0.07 0.06 0.07 0.06 0.07 0.08 0.10 0.11 0.11 0.10 0.08 0.07 0.06 0.06 0.05 0.06 0.07 0.05 0.04 0.04 0.04 0.04 0.03 0.03 0.03 0.03 0.02 0.02 0.02 0.02 0.02 0.02 0.02 0.02 0.02 0.03 0.04
0.05 0.05 0.05 0.05 0.05 0.06 0.06 0.10 0.13 0.12 0.10 0.08 0.08 0.07 0.06 0.06 0.06 0.06 0.06 0.06 0.05 0.04 0.03 0.02 0.02 0.03 0.03 0.02 0.02 0.01 0.01 0.01 0.01 0.02 0.02 0.02 0.02 0.03
0.03 0.04 0.04 0.04 0.03 0.04 0.04 0.06 0.08 0.09 0.09 0.09 0.08 0.08 0.07 0.07 0.07 0.06 0.04 0.04 0.04 0.03 0.03 0.02 0.01 0.02 0.02 0.01 0.01 0.01 0.02 0.02 0.02 0.02 0.02 0.02 0.02 0.02
0.03 0.03 0.02 0.02 0.04 0.04 0.05 0.05 0.05 0.05 0.06 0.06 0.06 0.06 0.07 0.06 0.06 0.05 0.04 0.04 0.04 0.04 0.03 0.02 0.01 0.02 0.01 0.01 0.01 0.01 0.02 0.02 0.02 0.02 0.03 0.03 0.02 0.02
0.02 0.02 0.03 0.03 0.03 0.04 0.06 0.06 0.06 0.06 0.06 0.04 0.04 0.05 0.05 0.05 0.05 0.04 0.05 0.04 0.04 0.03 0.03 0.03 0.02 0.02 0.01 0.01 0.01 0.01 0.01 0.01 0.02 0.02 0.02 0.03 0.03 0.03
0.02 0.02 0.03 0.03 0.04 0.04 0.05 0.05 0.06 0.07 0.07 0.07 0.06 0.07 0.06 0.06 0.05 0.05 0.05 0.04 0.03 0.02 0.02 0.02 0.02 0.02 0.01 0.01 0.01 0.01 0.01 0.01 0.01 0.01 0.01 0.01 0.02 0.02
0.03 0.03 0.04 0.03 0.03 0.03 0.03 0.04 0.04 0.07 0.09 0.08 0.08 0.08 0.07 0.06 0.05 0.05 0.05 0.04 0.03 0.02 0.02 0.02 0.02 0.02 0.02 0.01 0.01 0.01 0.01 0.01 0.01 0.01 0.01 0.01 0.01 0.01
0.03 0.02 0.02 0.02 0.01 0.01 0.02 0.02 0.02 0.04 0.07 0.08 0.08 0.08 0.08 0.07 0.05 0.04 0.03 0.03 0.03 0.02 0.02 0.02 0.02 0.03 0.03 0.02 0.01 0.01 0.01 0.02 0.01 0.01 0.02 0.02 0.02 0.01
0.03 0.02 0.03 0.02 0.02 0.01 0.01 0.01 0.02 0.03 0.04 0.05 0.07 0.07 0.06 0.06 0.05 0.04 0.04 0.03 0.04 0.04 0.03 0.04 0.04 0.04 0.04 0.03 0.02 0.02 0.01 0.02 0.02 0.02 0.03 0.03 0.02 0.02
0.02 0.03 0.04 0.03 0.03 0.02 0.02 0.02 0.03 0.04 0.04 0.04 0.04 0.05 0.06 0.07 0.08 0.06 0.05 0.05 0.05 0.05 0.05 0.05 0.05 0.06 0.06 0.05 0.03 0.03 0.02 0.02 0.02 0.03 0.03 0.03 0.03 0.02
0.03 0.03 0.04 0.05 0.04 0.03 0.03 0.03 0.03 0.04 0.04 0.04 0.04 0.04 0.05 0.06 0.07 0.07 0.07 0.07 0.07 0.06 0.05 0.05 0.05 0.05 0.04 0.04 0.04 0.04 0.03 0.03 0.03 0.03 0.02 0.03 0.03 0.03
0.06 0.05 0.05 0.05 0.05 0.04 0.04 0.04 0.04 0.05 0.04 0.04 0.04 0.05 0.05 0.05 0.05 0.06 0.06 0.06 0.06 0.07 0.06 0.05 0.04 0.04 0.04 0.04 0.05 0.05 0.04 0.04 0.04 0.05 0.04 0.04 0.04 0.03
0.07 0.06 0.06 0.06 0.06 0.06 0.06 0.05 0.05 0.05 0.05 0.05 0.05 0.05 0.04 0.04 0.04 0.04 0.04 0.05 0.06 0.06 0.06 0.06 0.06 0.06 0.07 0.07 0.05 0.04 0.04 0.04 0.04 0.05 0.04 0.04 0.04 0.03
0.07 0.07 0.07 0.06 0.07 0.07 0.07 0.07 0.06 0.06 0.06 0.06 0.06 0.05 0.04 0.04 0.04 0.04 0.04 0.05 0.06 0.06 0.06 0.07 0.06 0.06 0.07 0.08 0.08 0.05 0.03 0.03 0.03 0.03 0.03 0.03 0.03 0.03
0.05 0.06 0.06 0.07 0.08 0.07 0.08 0.09 0.09 0.08 0.08 0.08 0.07 0.05 0.05 0.05 0.05 0.05 0.04 0.04 0.05 0.06 0.06 0.07 0.06 0.05 0.05 0.05 0.06 0.06 0.05 0.04 0.03 0.02 0.02 0.02 0.02 0.02
0.05 0.04 0.05 0.05 0.07 0.08 0.09 0.10 0.09 0.09 0.08 0.07 0.07 0.06 0.06 0.07 0.06 0.06 0.05 0.06 0.06 0.06 0.06 0.06 0.05 0.04 0.03 0.04 0.05 0.05 0.04 0.03 0.02 0.02 0.01 0.01 0.02 0.02
0.04 0.04 0.04 0.05 0.06 0.06 0.06 0.07 0.09 0.10 0.10 0.08 0.07 0.06 0.06 0.07 0.08 0.07 0.07 0.07 0.07 0.06 0.06 0.05 0.05 0.04 0.03 0.04 0.04 0.04 0.03 0.02 0.02 0.01 0.01 0.01 0.01 0.01
0.03 0.04 0.03 0.04 0.05 0.05 0.04 0.04 0.05 0.06 0.08 0.09 0.09 0.09 0.08 0.08 0.08 0.09 0.10 0.08 0.07 0.06 0.06 0.05 0.04 0.04 0.03 0.03 0.03 0.02 0.02 0.02 0.01 0.01 0.01 0.01 0.01 0.01
MSLP
1013.07 1012.91 1012.78 1012.66 1012.52 1012.35 1012.13 1011.85 1011.50 1011.12 1010.72 1010.34 1010.01 1009.78 1009.65 1009.62 1009.69 1009.82 1009.97 1010.12 1010.22 1010.27 1010.25 1010.18 1010.07 1009.94 1009.83 1009.74 1009.70 1009.70 1009.74 1009.80 1009.86 1009.90 1009.93 1009.92 1009.89 1009.85
1013.19 1013.05 1012.93 1012.81 1012.68 1012.52 1012.30 1012.02 1011.68 1011.29 1010.88 1010.48 1010.13 1009.87 1009.70 1009.64 1009.67 1009.77 1009.91 1010.05 1010.17 1010.24 1010.25 1010.22 1010.15 1010.05 1009.96 1009.89 1009.84 1009.83 1009.83 1009.84 1009.85 1009.84 1009.80 1009.73 1009.64 1009.53
1013.25 1013.13 1013.03 1012.93 1012.82 1012.68 1012.48 1012.23 1011.91 1011.53 1011.13 1010.74 1010.37 1010.08 1009.88 1009.76 1009.74 1009.79 1009.89 1010.00 1010.11 1010.19 1010.24 1010.24 1010.22 1010.19 1010.15 1010.12 1010.11 1010.10 1010.10 1010.10 1010.07 1010.02 1009.94 1009.82 1009.68 1009.53
1013.29 1013.20 1013.12 1013.05 1012.96 1012.85 1012.68 1012.46 1012.18 1011.84 1011.47 1011.08 1010.72 1010.41 1010.17 1010.01 1009.92 1009.90 1009.93 1010.00 1010.07 1010.14 1010.19 1010.24 1010.27 1010.30 1010.33 1010.37 1010.41 1010.45 1010.48 1010.48 1010.45 1010.38 1010.27 1010.12 1009.95 1009.76
1013.31 1013.25 1013.20 1013.15 1013.09 1013.00 1012.87 1012.69 1012.45 1012.16 1011.83 1011.48 1011.13 1010.81 1010.54 1010.33 1010.17 1010.08 1010.03 1010.02 1010.04 1010.08 1010.13 1010.20 1010.27 1010.37 1010.47 1010.59 1010.70 1010.80 1010.87 1010.90 1010.89 1010.82 1010.70 1010.54 1010.35 1010.15
1013.29 1013.25 1013.22 1013.19 1013.15 1013.08 1012.99 1012.85 1012.65 1012.41 1012.13 1011.83 1011.51 1011.20 1010.91 1010.66 1010.45 1010.28 1010.16 1010.07 1010.03 1010.02 1010.05 1010.12 1010.23 1010.37 1010.54 1010.73 1010.91 1011.07 1011.20 1011.27 1011.29 1011.24 1011.13 1010.98 1010.79 1010.60
1013.18 1013.16 1013.14 1013.12 1013.09 1013.04 1012.96 1012.85 1012.71 1012.52 1012.29 1012.04 1011.77 1011.48 1011.21 1010.94 1010.69 1010.47 1010.28 1010.12 1010.01 1009.96 1009.96 1010.02 1010.14 1010.31 1010.53 1010.77 1011.01 1011.23 1011.41 1011.53 1011.58 1011.56 1011.47 1011.34 1011.17 1010.99
1012.95 1012.94 1012.92 1012.90 1012.87 1012.82 1012.76 1012.67 1012.56 1012.42 1012.25 1012.06 1011.84 1011.60 1011.35 1011.09 1010.83 1010.58 1010.35 1010.15 1009.99 1009.89 1009.85 1009.89 1010.01 1010.19 1010.43 1010.70 1010.98 1011.24 1011.46 1011.62 1011.70 1011.72 1011.66 1011.55 1011.41 1011.25
1012.58 1012.58 1012.56 1012.53 1012.49 1012.44 1012.38 1012.31 1012.22 1012.12 1012.00 1011.86 1011.70 1011.52 1011.32 1011.09 1010.85 1010.60 1010.35 1010.12 1009.93 1009.80 1009.73 1009.74 1009.84 1010.01 1010.25 1010.53 1010.82 1011.10 1011.35 1011.53 1011.65 1011.69 1011.66 1011.59 1011.47 1011.35
1012.11 1012.11 1012.10 1012.06 1012.02 1011.96 1011.89 1011.82 1011.74 1011.67 1011.59 1011.50 1011.40 1011.27 1011.12 1010.95 1010.74 1010.51 1010.27 1010.04 1009.84 1009.68 1009.58 1009.57 1009.63 1009.78 1010.00 1010.26 1010.54 1010.82 1011.07 1011.27 1011.41 1011.48 1011.49 1011.44 1011.36 1011.27
1011.61 1011.63 1011.62 1011.59 1011.54 1011.47 1011.39 1011.32 1011.25 1011.18 1011.13 1011.07 1011.01 1010.93 1010.83 1010.70 1010.54 1010.34 1010.13 1009.91 1009.71 1009.54 1009.42 1009.38 1009.41 1009.52 1009.69 1009.92 1010.17 1010.43 1010.67 1010.87 1011.03 1011.12 1011.16 1011.16 1011.12 1011.06
1011.21 1011.24 1011.24 1011.21 1011.16 1011.08 1011.00 1010.91 1010.84 1010.77 1010.72 1010.68 1010.63 1010.58 1010.52 1010.42 1010.29 1010.13 1009.95 1009.75 1009.56 1009.39 1009.26 1009.19 1009.18 1009.24 1009.37 1009.54 1009.75 1009.98 1010.20 1010.40 1010.56 1010.68 1010.76 1010.80 1010.80 1010.79
1010.97 1011.01 1011.02 1011.00 1010.95 1010.87 1010.78 1010.68 1010.59 1010.51 1010.45 1010.40 1010.35 1010.31 1010.25 1010.17 1010.07 1009.94 1009.78 1009.61 1009.43 1009.26 1009.12 1009.03 1008.99 1009.00 1009.07 1009.19 1009.35 1009.54 1009.73 1009.92 1010.09 1010.23 1010.35 1010.44 1010.49 1010.53
1010.94 1010.98 1011.00 1010.98 1010.93 1010.85 1010.76 1010.65 1010.54 1010.44 1010.35 1010.27 1010.20 1010.14 1010.08 1010.01 1009.91 1009.80 1009.67 1009.52 1009.36 1009.20 1009.06 1008.95 1008.88 1008.85 1008.87 1008.94 1009.04 1009.18 1009.34 1009.51 1009.68 1009.85 1010.01 1010.14 1010.26 1010.35
1011.09 1011.12 1011.13 1011.12 1011.07 1010.99 1010.89 1010.77 1010.64 1010.52 1010.40 1010.29 1010.19 1010.10 1010.02 1009.94 1009.85 1009.75 1009.64 1009.51 1009.38 1009.25 1009.12 1009.01 1008.92 1008.86 1008.83 1008.84 1008.89 1008.98 1009.10 1009.25 1009.42 1009.60 1009.79 1009.97 1010.14 1010.29
1011.34 1011.35 1011.35 1011.32 1011.28 1011.20 1011.10 1010.97 1010.83 1010.68 1010.54 1010.40 1010.27 1010.16 1010.06 1009.97 1009.88 1009.80 1009.72 1009.63 1009.53 1009.43 1009.33 1009.23 1009.14 1009.05 1008.99 1008.96 1008.95 1008.99 1009.07 1009.18 1009.34 1009.52 1009.73 1009.94 1010.15 1010.35
1011.58 1011.56 1011.54 1011.51 1011.46 1011.39 1011.29 1011.17 1011.03 1010.87 1010.71 1010.55 1010.40 1010.27 1010.16 1010.07 1010.00 1009.95 1009.91 1009.86 1009.82 1009.77 1009.71 1009.64 1009.55 1009.46 1009.38 1009.30 1009.25 1009.23 1009.25 1009.32 1009.44 1009.61 1009.81 1010.04 1010.27 1010.49
1011.72 1011.67 1011.64 1011.61 1011.56 1011.50 1011.42 1011.31 1011.17 1011.02 1010.86 1010.70 1010.55 1010.42 1010.31 1010.24 1010.20 1010.18 1010.19 1010.21 1010.23 1010.24 1010.23 1010.19 1010.13 1010.05 1009.95 1009.84 1009.74 1009.66 1009.62 1009.63 1009.69 1009.81 1009.98 1010.19 1010.42 1010.65
1011.72 1011.66 1011.62 1011.60 1011.57 1011.53 1011.47 1011.38 1011.26 1011.13 1010.98 1010.83 1010.69 1010.58 1010.49 1010.45 1010.44 1010.47 1010.53 1010.61 1010.70 1010.77 1010.82 1010.83 1010.80 1010.72 1010.61 1010.47 1010.31 1010.17 1010.06 1010.00 1009.99 1010.04 1010.16 1010.32 1010.52 1010.72
1011.59 1011.55 1011.53 1011.52 1011.52 1011.51 1011.48 1011.42 1011.34 1011.23 1011.11 1010.98 1010.86 1010.76 1010.70 1010.68 1010.70 1010.77 1010.89 1011.02 1011.16 1011.29 1011.38 1011.43 1011.42 1011.35 1011.23 1011.06 1010.86 1010.65 1010.47 1010.32 1010.23 1010.20 1010.24 1010.33 1010.47 1010.63
1011.42 1011.41 1011.43 1011.46 1011.49 1011.52 1011.53 1011.51 1011.46 1011.38 1011.28 1011.17 1011.06 1010.98 1010.93 1010.92 1010.97 1011.06 1011.19 1011.36 1011.53 1011.69 1011.81 1011.88 1011.88 1011.81 1011.67 1011.47 1011.23 1010.97 1010.71 1010.48 1010.30 1010.19 1010.14 1010.15 1010.21 1010.32
1011.28 1011.32 1011.39 1011.47 1011.55 1011.62 1011.67 1011.68 1011.66 1011.61 1011.52 1011.42 1011.32 1011.23 1011.18 1011.16 1011.20 1011.28 1011.41 1011.56 1011.73 1011.89 1012.01 1012.08 1012.07 1011.99 1011.83 1011.60 1011.32 1011.01 1010.69 1010.40 1010.14 1009.95 1009.82 1009.75 1009.74 1009.78
1011.21 1011.32 1011.44 1011.58 1011.71 1011.82 1011.91 1011.95 1011.96 1011.92 1011.84 1011.74 1011.62 1011.51 1011.43 1011.37 1011.37 1011.40 1011.49 1011.60 1011.73 1011.85 1011.93 1011.97 1011.94 1011.83 1011.65 1011.39 1011.08 1010.74 1010.38 1010.04 1009.74 1009.49 1009.30 1009.17 1009.10 1009.07
Thickness
5752 5750 5748 5750 5750 5749 5747 5745 5739 5736 5740 5745 5745 5746 5744 5742 5739 5737 5737 5733 5731 5729 5728 5726 5724 5722 5721 5719 5717 5715 5712 5710 5708 5706 5705 5703 5702 5700
5748 5746 5745 5747 5747 5745 5744 5744 5741 5736 5735 5741 5740 5742 5739 5739 5735 5734 5733 5729 5727 5726 5724 5722 5720 5718 5716 5714 5712 5710 5708 5705 5703 5702 5700 5698 5697 5695
5744 5743 5742 5741 5742 5742 5741 5739 5738 5736 5731 5736 5737 5737 5733 5731 5730 5729 5729 5727 5726 5723 5720 5718 5716 5714 5711 5709 5707 5705 5703 5701 5699 5697 5695 5693 5692 5690
5740 5739 5738 5739 5737 5737 5736 5736 5734 5732 5729 5727 5729 5730 5728 5726 5724 5723 5725 5725 5724 5719 5716 5714 5711 5709 5707 5704 5702 5700 5698 5696 5693 5691 5690 5688 5686 5684
5736 5735 5734 5734 5732 5733 5731 5731 5730 5730 5727 5724 5724 5725 5724 5723 5719 5719 5720 5717 5718 5714 5710 5708 5706 5703 5702 5699 5697 5694 5692 5690 5688 5686 5684 5682 5680 5678
5731 5731 5730 5728 5727 5727 5726 5725 5724 5722 5721 5719 5719 5718 5717 5717 5714 5712 5711 5711 5711 5710 5706 5703 5700 5697 5696 5694 5692 5689 5686 5684 5682 5680 5678 5676 5674 5672
5726 5725 5725 5723 5721 5719 5721 5720 5718 5716 5715 5714 5713 5711 5710 5709 5707 5708 5705 5705 5704 5704 5701 5699 5697 5695 5692 5688 5686 5683 5680 5678 5675 5673 5671 5669 5667 5665
5718 5718 5719 5717 5714 5712 5711 5710 5709 5709 5708 5706 5707 5705 5704 5704 5703 5702 5700 5697 5695 5697 5694 5692 5692 5691 5689 5686 5681 5677 5674 5671 5669 5667 5664 5663 5661 5659
5710 5710 5712 5714 5709 5709 5707 5703 5703 5701 5699 5699 5700 5699 5699 5699 5696 5694 5693 5691 5689 5690 5687 5685 5685 5683 5682 5679 5674 5671 5668 5665 5662 5660 5658 5656 5654 5652
5704 5703 5702 5702 5702 5700 5700 5700 5699 5699 5696 5694 5694 5695 5695 5694 5691 5689 5687 5685 5684 5683 5681 5678 5678 5676 5676 5672 5667 5664 5661 5659 5656 5653 5651 5649 5648 5646
5697 5696 5694 5694 5691 5689 5690 5691 5692 5692 5691 5689 5687 5686 5684 5684 5682 5681 5679 5677 5676 5676 5675 5672 5671 5669 5668 5666 5662 5657 5655 5652 5650 5647 5645 5644 5642 5640
5688 5688 5685 5683 5681 5679 5680 5682 5682 5683 5684 5683 5679 5678 5677 5676 5673 5672 5672 5670 5669 5668 5668 5665 5664 5661 5658 5659 5657 5652 5649 5646 5644 5642 5640 5638 5635 5634
5679 5680 5679 5674 5671 5669 5669 5672 5673 5672 5674 5673 5673 5672 5671 5670 5669 5667 5665 5664 5662 5661 5662 5659 5657 5655 5652 5649 5648 5647 5646 5643 5640 5637 5634 5632 5630 5628
5667 5669 5668 5663 5661 5659 5660 5661 5660 5660 5664 5664 5663 5663 5663 5662 5662 5660 5658 5657 5655 5654 5653 5651 5649 5647 5644 5641 5640 5640 5639 5638 5636 5634 5631 5627 5625 5624
5657 5656 5653 5652 5651 5652 5651 5650 5650 5653 5654 5654 5654 5654 5654 5654 5652 5650 5649 5647 5646 5645 5644 5641 5640 5639 5638 5636 5635 5634 5632 5632 5631 5628 5626 5624 5622 5620
5645 5645 5642 5642 5642 5642 5643 5643 5643 5645 5645 5645 5645 5645 5645 5644 5643 5642 5640 5639 5637 5637 5635 5633 5632 5630 5630 5630 5629 5627 5626 5624 5624 5622 5620 5618 5617 5616
5632 5634 5636 5637 5637 5637 5638 5637 5636 5636 5634 5635 5634 5633 5633 5633 5633 5633 5631 5631 5630 5629 5627 5625 5625 5623 5622 5622 5621 5621 5620 5618 5617 5614 5611 5611 5611 5611
5619 5624 5625 5626 5626 5627 5627 5627 5627 5626 5626 5626 5624 5624 5623 5624 5623 5623 5622 5622 5622 5622 5621 5619 5617 5616 5614 5614 5611 5612 5612 5610 5609 5606 5606 5606 5605 5604
5610 5614 5614 5615 5616 5616 5617 5618 5617 5617 5616 5615 5615 5614 5615 5615 5614 5613 5614 5614 5614 5614 5613 5612 5611 5609 5608 5608 5606 5602 5602 5602 5601 5600 5599 5600 5599 5598
5605 5605 5605 5605 5605 5605 5606 5606 5606 5606 5606 5605 5604 5605 5606 5606 5605 5605 5606 5606 5606 5605 5605 5605 5604 5603 5602 5601 5600 5598 5594 5595 5594 5593 5592 5592 5591 5589
5597 5597 5596 5596 5595 5594 5593 5593 5593 5594 5594 5594 5595 5594 5596 5596 5597 5597 5598 5595 5595 5596 5596 5597 5597 5594 5595 5594 5593 5593 5591 5587 5586 5585 5584 5584 5584 5584
5588 5587 5586 5585 5584 5583 5582 5582 5582 5583 5583 5583 5584 5585 5586 5587 5588 5588 5589 5588 5588 5589 5589 5589 5588 5588 5588 5588 5588 5587 5585 5582 5578 5576 5574 5574 5576 5578
5579 5578 5577 5575 5574 5573 5573 5572 5572 5573 5573 5573 5573 5574 5575 5576 5577 5579 5580 5580 5580 5580 5580 5580 5581 5581 5582 5581 5581 5580 5578 5576 5575 5573 5571 5567 5566 5565